TimeEST,TemperatureF,Dew PointF,Humidity,Sea Level PressureIn,VisibilityMPH,Wind Direction,Wind SpeedMPH,Gust SpeedMPH,PrecipitationIn,Events,Conditions,WindDirDegrees,DateUTC
12:15 AM,57.2,57.2,100,30.37,10.0,East,3.5,-,N/A,,Clear,80,2013-01-11 05:15:00
12:35 AM,55.4,55.4,100,30.37,5.0,Calm,Calm,-,0.01,,Drizzle,0,2013-01-11 05:35:00
12:55 AM,55.4,55.4,100,30.36,10.0,Calm,Calm,-,0.01,Rain,Light Rain,0,2013-01-11 05:55:00
1:15 AM,55.4,55.4,100,30.35,4.0,NE,3.5,-,0.02,Rain,Rain,50,2013-01-11 06:15:00
1:35 AM,55.4,55.4,100,30.34,10.0,ENE,6.9,-,0.02,,Clear,60,2013-01-11 06:35:00
1:55 AM,55.4,55.4,100,30.34,10.0,ENE,4.6,-,0.02,,Clear,70,2013-01-11 06:55:00
2:15 AM,55.4,55.4,100,30.34,10.0,East,3.5,-,N/A,,Clear,80,2013-01-11 07:15:00
2:35 AM,55.4,55.4,100,30.34,10.0,East,3.5,-,N/A,Rain,Light Rain,80,2013-01-11 07:35:00
2:55 AM,55.4,55.4,100,30.34,7.0,Calm,Calm,-,N/A,,Light Drizzle,0,2013-01-11 07:55:00
3:15 AM,55.4,55.4,100,30.34,10.0,Calm,Calm,-,N/A,,Clear,0,2013-01-11 08:15:00
3:35 AM,55.4,55.4,100,30.33,10.0,Calm,Calm,-,N/A,,Clear,0,2013-01-11 08:35:00
3:55 AM,55.4,55.4,100,30.32,10.0,Calm,Calm,-,N/A,Rain,Rain,0,2013-01-11 08:55:00
4:15 AM,53.6,53.6,100,30.31,10.0,Calm,Calm,-,N/A,,Clear,0,2013-01-11 09:15:00
4:35 AM,53.6,53.6,100,30.30,10.0,Calm,Calm,-,N/A,,Clear,0,2013-01-11 09:35:00
4:55 AM,53.6,53.6,100,30.30,10.0,Calm,Calm,-,N/A,,Clear,0,2013-01-11 09:55:00
5:15 AM,53.6,53.6,100,30.29,10.0,Calm,Calm,-,N/A,,Clear,0,2013-01-11 10:15:00
5:35 AM,53.6,53.6,100,30.29,10.0,Calm,Calm,-,N/A,,Clear,0,2013-01-11 10:35:00
5:55 AM,53.6,53.6,100,30.29,10.0,Calm,Calm,-,N/A,,Clear,0,2013-01-11 10:55:00
6:15 AM,55.4,55.4,100,30.29,10.0,Calm,Calm,-,N/A,,Clear,0,2013-01-11 11:15:00
6:35 AM,55.4,55.4,100,30.30,10.0,Calm,Calm,-,N/A,,Clear,0,2013-01-11 11:35:00
6:55 AM,55.4,55.4,100,30.29,10.0,Calm,Calm,-,N/A,,Clear,0,2013-01-11 11:55:00
7:15 AM,55.4,55.4,100,30.29,10.0,ENE,3.5,-,N/A,,Clear,70,2013-01-11 12:15:00
7:35 AM,55.4,55.4,100,30.29,10.0,Calm,Calm,-,N/A,,Clear,0,2013-01-11 12:35:00
7:55 AM,55.4,55.4,100,30.28,4.0,Calm,Calm,-,N/A,,Clear,0,2013-01-11 12:55:00
8:15 AM,55.4,55.4,100,30.29,0.2,ENE,3.5,-,N/A,Fog,Fog,60,2013-01-11 13:15:00
8:35 AM,55.4,55.4,100,30.30,0.2,Calm,Calm,-,N/A,Fog,Fog,0,2013-01-11 13:35:00
8:55 AM,55.4,55.4,100,30.30,0.2,Calm,Calm,-,N/A,Fog,Fog,0,2013-01-11 13:55:00
9:15 AM,55.4,55.4,100,30.31,0.2,Calm,Calm,-,N/A,Fog,Fog,0,2013-01-11 14:15:00
9:35 AM,57.2,57.2,100,30.31,0.2,Calm,Calm,-,N/A,Fog,Fog,0,2013-01-11 14:35:00
9:55 AM,57.2,57.2,100,30.31,0.2,Calm,Calm,-,N/A,Fog,Fog,0,2013-01-11 14:55:00
10:15 AM,59.0,59.0,100,30.30,0.2,Calm,Calm,-,N/A,Fog,Fog,0,2013-01-11 15:15:00
10:35 AM,59.0,59.0,100,30.30,0.2,Calm,Calm,-,N/A,Fog,Fog,0,2013-01-11 15:35:00
11:15 AM,60.8,60.8,100,30.30,0.2,West,4.6,-,N/A,Fog,Fog,280,2013-01-11 16:15:00
11:35 AM,60.8,60.8,100,30.29,0.5,Calm,Calm,-,N/A,Fog,Fog,0,2013-01-11 16:35:00
11:55 AM,60.8,60.8,100,30.28,3.0,Calm,Calm,-,N/A,,Clear,0,2013-01-11 16:55:00
12:15 PM,62.6,62.6,100,30.27,5.0,Calm,Calm,-,N/A,,Clear,0,2013-01-11 17:15:00
12:55 PM,64.4,64.4,100,30.24,10.0,South,3.5,-,N/A,,Clear,180,2013-01-11 17:55:00
1:15 PM,66.2,66.2,100,30.23,10.0,SE,3.5,-,N/A,,Clear,130,2013-01-11 18:15:00
1:35 PM,69.8,66.2,88,30.22,10.0,SSW,3.5,-,N/A,,Clear,210,2013-01-11 18:35:00
1:55 PM,71.6,68.0,88,30.22,10.0,SSE,3.5,-,N/A,,Clear,150,2013-01-11 18:55:00
2:15 PM,71.6,68.0,88,30.21,10.0,SE,4.6,-,N/A,,Clear,130,2013-01-11 19:15:00
2:35 PM,71.6,68.0,88,30.19,10.0,Calm,Calm,-,N/A,,Clear,0,2013-01-11 19:35:00
2:55 PM,73.4,66.2,78,30.19,10.0,SSW,4.6,-,N/A,,Clear,200,2013-01-11 19:55:00
3:15 PM,77.0,64.4,65,30.19,10.0,SSW,4.6,-,N/A,,Clear,200,2013-01-11 20:15:00
3:35 PM,77.0,64.4,65,30.18,10.0,SSE,6.9,-,N/A,,Clear,160,2013-01-11 20:35:00
3:55 PM,75.2,64.4,69,30.18,10.0,South,5.8,-,N/A,,Clear,180,2013-01-11 20:55:00
4:15 PM,75.2,64.4,69,30.18,10.0,South,5.8,-,N/A,,Clear,180,2013-01-11 21:15:00
4:35 PM,73.4,64.4,73,30.18,10.0,South,3.5,-,N/A,,Clear,180,2013-01-11 21:35:00
4:55 PM,73.4,64.4,73,30.18,10.0,South,3.5,-,N/A,,Clear,170,2013-01-11 21:55:00
5:15 PM,71.6,64.4,78,30.18,10.0,Calm,Calm,-,N/A,,Clear,0,2013-01-11 22:15:00
5:35 PM,68.0,66.2,94,30.19,10.0,Calm,Calm,-,N/A,,Clear,0,2013-01-11 22:35:00
5:55 PM,66.2,66.2,100,30.19,10.0,Calm,Calm,-,N/A,,Clear,0,2013-01-11 22:55:00
6:15 PM,64.4,64.4,100,30.19,7.0,Calm,Calm,-,N/A,,Clear,0,2013-01-11 23:15:00
6:35 PM,62.6,62.6,100,30.19,10.0,Calm,Calm,-,N/A,,Clear,0,2013-01-11 23:35:00
6:55 PM,62.6,62.6,100,30.18,7.0,Calm,Calm,-,N/A,,Clear,0,2013-01-11 23:55:00
7:15 PM,62.6,62.6,100,30.18,10.0,Calm,Calm,-,N/A,,Clear,0,2013-01-12 00:15:00
7:35 PM,62.6,62.6,100,30.18,7.0,Calm,Calm,-,N/A,,Clear,0,2013-01-12 00:35:00
7:55 PM,60.8,60.8,100,30.18,7.0,Calm,Calm,-,N/A,,Clear,0,2013-01-12 00:55:00
8:15 PM,60.8,60.8,100,30.18,3.0,SSE,3.5,-,N/A,,Clear,150,2013-01-12 01:15:00
8:35 PM,64.4,64.4,100,30.18,10.0,SSE,4.6,-,N/A,,Clear,150,2013-01-12 01:35:00
8:55 PM,64.4,64.4,100,30.19,10.0,SSE,3.5,-,N/A,,Clear,150,2013-01-12 01:55:00
9:15 PM,64.4,64.4,100,30.19,10.0,Calm,Calm,-,N/A,,Clear,0,2013-01-12 02:15:00
9:35 PM,64.4,62.6,94,30.19,10.0,SE,4.6,-,N/A,,Clear,140,2013-01-12 02:35:00
9:55 PM,64.4,64.4,100,30.19,10.0,Calm,Calm,-,N/A,,Clear,0,2013-01-12 02:55:00
10:15 PM,64.4,64.4,100,30.19,10.0,Calm,Calm,-,N/A,,Clear,0,2013-01-12 03:15:00
10:35 PM,64.4,64.4,100,30.19,10.0,Calm,Calm,-,N/A,,Clear,0,2013-01-12 03:35:00
10:55 PM,64.4,64.4,100,30.19,10.0,SSE,4.6,-,N/A,,Clear,160,2013-01-12 03:55:00
11:15 PM,64.4,64.4,100,30.19,10.0,South,3.5,-,N/A,,Clear,180,2013-01-12 04:15:00
11:35 PM,64.4,64.4,100,30.19,10.0,Calm,Calm,-,N/A,,Clear,0,2013-01-12 04:35:00
11:55 PM,64.4,64.4,100,30.18,10.0,Calm,Calm,-,N/A,,Clear,0,2013-01-12 04:55:00